[TLELIST] Archives

 

[list_settings.list_name] Current TLEs

December 8th 2008 PST

HST 1 20580U 90037B 08342.15681883 .00000330 00000-0 12655-4 0 2780 2 20580 028.4708 275.0265 0003636 064.9083 295.1881 15.00435557820987 ISS (ZARYA) 1 25544U 98067A 08342.19077742 .00009159 00000-0 73752-4 0 8063 2 25544 051.6406 209.6943 0006559 070.8551 025.0151 15.71765864575751 CXO 1 25867U 99040B 08339.56655706 .00000000 00000-0 10000-3 0 2721 2 25867 064.5709 075.6392 7151623 277.1635 013.5567 00.37817443 4287 ____________________________________________________________________ These 2-Line ...Continue Reading

[list_settings.list_name] Current TLEs

December 7th 2008 PST

HST 1 20580U 90037B 08340.89300408 .00000336 00000-0 13166-4 0 2773 2 20580 028.4709 283.2770 0003443 050.7397 309.3494 15.00435267820792 ISS (ZARYA) 1 25544U 98067A 08340.45501157 .00007231 00000-0 59321-4 0 7965 2 25544 051.6425 218.5761 0006484 066.9829 280.7909 15.71725910575478 CXO 1 25867U 99040B 08339.56655706 .00000000 00000-0 10000-3 0 2721 2 25867 064.5709 075.6392 7151623 277.1635 013.5567 00.37817443 4287 ____________________________________________________________________ These 2-Line ...Continue Reading

[list_settings.list_name] Current TLEs

December 6th 2008 PST

HST 1 20580U 90037B 08339.29660488 .00000345 00000-0 13823-4 0 2761 2 20580 028.4709 293.6871 0003458 033.5749 326.5059 15.00434781820557 ISS (ZARYA) 1 25544U 98067A 08340.16362271 .00007468 00000-0 61116-4 0 7928 2 25544 051.6415 220.0683 0006597 064.3356 073.5895 15.71722177575430 CXO 1 25867U 99040B 08339.56655706 .00000000 00000-0 10000-3 0 2721 2 25867 064.5709 075.6392 7151623 277.1635 013.5567 00.37817443 4287 ____________________________________________________________________ These 2-Line ...Continue Reading

[list_settings.list_name] Current TLEs

December 5th 2008 PST

HST 1 20580U 90037B 08339.29660488 .00000345 00000-0 13823-4 0 2761 2 20580 028.4709 293.6871 0003458 033.5749 326.5059 15.00434781820557 ISS (ZARYA) 1 25544U 98067A 08338.56349088 .00011828 00000-0 94063-4 0 7821 2 25544 051.6429 228.2543 0006711 058.8360 019.2433 15.71712174575184 CXO 1 25867U 99040B 08318.29166667 +.00000554 +00000-0 +10000-3 0 02646 2 25867 064.4828 076.2712 7104876 277.4282 356.9984 00.37801401004194 ____________________________________________________________________ These 2-Line ...Continue Reading

[list_settings.list_name] Current TLEs

December 4th 2008 PST

HST 1 20580U 90037B 08338.23233806 .00000349 00000-0 14199-4 0 2754 2 20580 028.4712 300.6288 0003411 021.2780 338.7948 15.00434464820392 ISS (ZARYA) 1 25544U 98067A 08338.18619015 .00012235 00000-0 97164-4 0 7793 2 25544 051.6425 230.1865 0006646 057.6613 044.1641 15.71704731575126 CXO 1 25867U 99040B 08318.29166667 +.00000554 +00000-0 +10000-3 0 02646 2 25867 064.4828 076.2712 7104876 277.4282 356.9984 00.37801401004194 ____________________________________________________________________ These 2-Line ...Continue Reading

[list_settings.list_name] Current TLEs

December 3rd 2008 PST

HST 1 20580U 90037B 08336.36987058 .00000344 00000-0 13778-4 0 2747 2 20580 028.4713 312.7750 0003385 000.3346 359.7246 15.00433760820119 ISS (ZARYA) 1 25544U 98067A 08336.51618056 .00018396 00000-0 14380-3 0 7693 2 25544 051.6428 238.7350 0006359 052.7593 313.7277 15.71680295574864 CXO 1 25867U 99040B 08318.29166667 +.00000554 +00000-0 +10000-3 0 02646 2 25867 064.4828 076.2712 7104876 277.4282 356.9984 00.37801401004194 ____________________________________________________________________ These 2-Line ...Continue Reading

[list_settings.list_name] Current TLEs

December 2nd 2008 PST

HST 1 20580U 90037B 08335.23908648 .00000324 00000-0 12241-4 0 2731 2 20580 028.4712 320.1499 0003395 347.1032 012.9469 15.00433192819949 ISS (ZARYA) 1 25544U 98067A 08336.22280814 .00014387 00000-0 11363-3 0 7669 2 25544 051.6423 240.2350 0006647 051.7919 093.6461 15.71656983574819 CXO 1 25867U 99040B 08318.29166667 +.00000554 +00000-0 +10000-3 0 02646 2 25867 064.4828 076.2712 7104876 277.4282 356.9984 00.37801401004194 ____________________________________________________________________ These 2-Line ...Continue Reading

[list_settings.list_name] Current TLEs

December 1st 2008 PST

HST 1 20580U 90037B 08335.23908648 .00000324 00000-0 12241-4 0 2731 2 20580 028.4712 320.1499 0003395 347.1032 012.9469 15.00433192819949 ISS (ZARYA) 1 25544U 98067A 08334.54218750 .00025860 00000-0 20055-3 0 7556 2 25544 051.6425 248.8374 0006898 046.3246 303.9711 15.71618375574540 CXO 1 25867U 99040B 08318.29166667 +.00000554 +00000-0 +10000-3 0 02646 2 25867 064.4828 076.2712 7104876 277.4282 356.9984 00.37801401004194 ____________________________________________________________________ These 2-Line ...Continue Reading

[list_settings.list_name] Current TLEs

November 30th 2008 PST

HST 1 20580U 90037B 08333.44313450 .00000328 00000-0 12562-4 0 2722 2 20580 028.4711 331.8628 0003409 327.2299 032.8079 15.00432636819671 ISS (ZARYA) 1 25544U 98067A 08333.52163194 .00003642 00000-0 32415-4 0 7484 2 25544 051.6426 254.0558 0006852 038.4294 293.9806 15.71565036574389 CXO 1 25867U 99040B 08318.29166667 +.00000554 +00000-0 +10000-3 0 02646 2 25867 064.4828 076.2712 7104876 277.4282 356.9984 00.37801401004194 ____________________________________________________________________ These 2-Line ...Continue Reading

[list_settings.list_name] Current TLEs

November 29th 2008 PST

HST 1 20580U 90037B 08332.17931590 .00000311 00000-0 11234-4 0 2718 2 20580 028.4701 340.1043 0003531 311.8479 048.1804 15.00432063819488 ISS (ZARYA) 1 25544U 98067A 08332.33451507 .00013573 00000-0 10791-3 0 7419 2 25544 051.6440 260.1300 0007077 035.2320 056.4033 15.71557911574201 CXO 1 25867U 99040B 08318.29166667 +.00000554 +00000-0 +10000-3 0 02646 2 25867 064.4828 076.2712 7104876 277.4282 356.9984 00.37801401004194 ____________________________________________________________________ These 2-Line ...Continue Reading
  • This mailing list is a public mailing list - anyone may join or leave, at any time.
  • This mailing list is announce-only.

International Space Station (ISS) / Hubble Space Telescope (HST) / Chandra X-Ray Observatory Orbital Data via EMAIL

Privacy Policy:

Private list